Terug naar catalogus

CZ-6A DEB

ActiefPO
NORAD 61486·DEBRIS·🇨🇳 China

Gelanceerd Aug 6, 2024 vanaf Taiyuan Satellite Launch Center

Loading…

Volgende Passages (komende 24 uur)

TLE

VersSource: Space-Track

Epoch: Sep 14, 2026, 12:08 UTC

1 61486U 24140AAU 26257.50589637  .00535465  00000-0  77982-2 0  9994
2 61486  89.1641 275.5858 0024957 126.5737 233.7829 15.53602955108806

Volg CZ-6A DEB in realtime met AllMySat

Download on the App Store